Flag for U.S.A. Weather past 2 weeks in Winder, Georgia, U.S.A.

Now
50 °F

Sunny.


Feels Like: 47 °F
Forecast: 36 / 48 °F
Wind: 7 mph from West

Location: Winder-Barrow Airport

Current Time: Mar 6, 2015 at 3:16:22 PM

Latest Report: Mar 6, 2015 at 2:55 PM


Visibility: 10 mi

Pressure: 30.40 "Hg

Humidity: 47%

Dew point: 30 °F

Location of WinderLocation

Historic Weather in Winder — Graph

°F

Winder temperature yesterday

Maximum temperature yesterday: 68 °F (at 4:35 AM)
Minimum temperature yesterday: 37 °F (at 9:35 PM)
Average temperature yesterday: 53 °F

Past Weeks' High & Low Weather Summary

 TemperatureHumidityPressure
High79 °F (Mar 4, 3:15 PM)100% (Feb 22, 12:55 AM)30.65 "Hg (Feb 22, 12:55 AM)
Low18 °F (Feb 20, 12:55 AM)27% (Feb 20, 4:55 PM)29.71 "Hg (Feb 26, 2:35 AM)
Average43 °F82%30.22 "Hg
* Reported Feb 19 2:15 PM — Mar 6 2:15 PM, Winder, Weather by CustomWeather, © 2015

Note: Actual official high and low records may vary slightly from our data, if they occured in-between our weather recording intervals... More about our weather records

Advertising

Winder weather history for previous 24 hours

 ConditionsComfort  
Time TempWeatherWind HumidityBarometerVisibility
2:15 PM
Fri, Mar 6
50 °FSunny.6 mph47%30.41 "Hg10 mi
1:55 PM48 °FScattered clouds.5 mph50%30.41 "Hg10 mi
1:15 PM46 °FPartly sunny.No wind50%30.43 "Hg10 mi
12:55 PM45 °FOvercast.No wind49%30.45 "Hg10 mi
12:35 PM45 °FOvercast.6 mph49%30.45 "Hg10 mi
12:15 PM45 °FOvercast.No wind49%30.45 "Hg10 mi
11:55 AM45 °FOvercast.7 mph46%30.46 "Hg10 mi
11:35 AM43 °FOvercast.8 mph57%30.46 "Hg10 mi
11:15 AM43 °FOvercast.3 mph49%30.46 "Hg10 mi
10:55 AM43 °FOvercast.8 mph49%30.46 "Hg10 mi
10:35 AM41 °FOvercast.6 mph53%30.46 "Hg10 mi
10:15 AM41 °FOvercast.8 mph66%30.46 "Hg10 mi
9:55 AM39 °FOvercast.8 mph70%30.45 "Hg10 mi
9:35 AM37 °FOvercast.6 mph81%30.45 "Hg10 mi
9:15 AM37 °FOvercast.8 mph81%30.44 "Hg10 mi
8:55 AM37 °FMore clouds than sun.7 mph81%30.44 "Hg10 mi
8:35 AM37 °FMore clouds than sun.6 mph81%30.43 "Hg10 mi
8:15 AM37 °FOvercast.No wind81%30.43 "Hg10 mi
7:55 AM36 °FOvercast.No wind93%30.42 "Hg10 mi
7:15 AM36 °FLight rain. Cloudy.3 mph93%30.41 "Hg10 mi
6:55 AM36 °FLight rain. Mostly cloudy.No wind100%30.40 "Hg10 mi
6:35 AM36 °FLight rain. Mostly cloudy.5 mph100%30.40 "Hg10 mi
6:15 AM36 °FLight rain. Mostly cloudy.6 mph100%30.39 "Hg7 mi
5:55 AM36 °FDrizzle. Mostly cloudy.3 mph100%30.38 "Hg4 mi
5:35 AM36 °FOvercast.5 mph100%30.37 "Hg7 mi
5:15 AM36 °FMostly cloudy.3 mph100%30.36 "Hg7 mi
4:55 AM36 °FFog.6 mph93%30.35 "Hg5 mi
4:35 AM36 °FFog.3 mph93%30.34 "Hg4 mi
4:15 AM36 °FLow clouds.6 mph93%30.35 "Hg7 mi
3:55 AM36 °FLow clouds.6 mph93%30.34 "Hg7 mi
3:35 AM36 °FFog.6 mph93%30.34 "Hg5 mi
3:15 AM36 °FOvercast.6 mph87%30.34 "Hg10 mi
2:55 AM36 °FOvercast.8 mph87%30.34 "Hg10 mi
2:35 AM36 °FOvercast.6 mph87%30.34 "Hg10 mi
2:15 AM36 °FOvercast.7 mph87%30.33 "Hg10 mi
1:55 AM36 °FOvercast.8 mph87%30.32 "Hg10 mi
1:35 AM36 °FOvercast.7 mph87%30.32 "Hg10 mi
1:15 AM36 °FOvercast.8 mph87%30.31 "Hg10 mi
12:55 AM36 °FOvercast.7 mph87%30.31 "Hg10 mi
12:35 AM36 °FOvercast.9 mph87%30.31 "Hg10 mi
12:15 AM37 °FOvercast.10 mph81%30.31 "Hg10 mi
11:55 PM
Thu, Mar 5
37 °FOvercast.8 mph81%30.30 "Hg10 mi
11:35 PM37 °FOvercast.9 mph81%30.30 "Hg10 mi
11:15 PM37 °FOvercast.9 mph81%30.30 "Hg10 mi
10:55 PM37 °FOvercast.8 mph81%30.28 "Hg10 mi
10:35 PM37 °FPassing clouds.9 mph81%30.28 "Hg10 mi
9:55 PM37 °FClear.12 mph87%30.26 "Hg10 mi
9:35 PM37 °FClear.9 mph87%30.27 "Hg10 mi
9:15 PM39 °FClear.9 mph81%30.26 "Hg10 mi
8:55 PM39 °FClear.7 mph81%30.25 "Hg10 mi
8:35 PM39 °FClear.8 mph81%30.25 "Hg10 mi
8:15 PM39 °FClear.9 mph87%30.23 "Hg10 mi
7:55 PM39 °FClear.9 mph87%30.23 "Hg10 mi
7:35 PM39 °FClear.10 mph87%30.21 "Hg10 mi
7:15 PM39 °FPassing clouds.9 mph87%30.19 "Hg10 mi
6:55 PM39 °FPassing clouds.13 mph87%30.19 "Hg10 mi
6:35 PM41 °FPassing clouds.10 mph87%30.16 "Hg10 mi
6:15 PM41 °FDrizzle. Overcast.14 mph87%30.15 "Hg10 mi
5:55 PM41 °FOvercast.14 mph87%30.16 "Hg10 mi
5:35 PM43 °FOvercast.20 mph81%30.15 "Hg10 mi
4:55 PM45 °FMostly cloudy.15 mph81%30.10 "Hg10 mi
4:35 PM45 °FMostly cloudy.15 mph87%30.10 "Hg10 mi
3:55 PM45 °FMostly cloudy.14 mph93%30.07 "Hg10 mi
3:35 PM46 °FOvercast.15 mph87%30.07 "Hg10 mi
3:15 PM48 °FMostly cloudy.21 mph87%30.05 "Hg10 mi
Weather by CustomWeather, © 2015

See weather overviewHow to use our weather pages